Location: Chuathbaluk
(61.5726°N, 159.2454°W)
Time: 02:53:05
(UTC+00:00)

Transit 2A - Pass Details

Date: 28 November 2020
Orbit: 599 x 960 km, 66.7° (Epoch: 26 January)

Event Time Altitude Azimuth Distance (km) Brightness Sun altitude
Rises 09:29:40 0° 290° (WNW) 3,517 9.8 -48.7°
Enters shadow 09:30:14 - 291° (WNW) 3,306 9.6 -48.7°
Reaches altitude 10° 09:32:21 10° 295° (WNW) 2,527 - -48.8°
Maximum altitude 09:38:05 55° 13° (NNE) 975 - -49.0°
Drops below altitude 10° 09:43:15 10° 91° (E) 2,282 - -49.2°
Sets 09:45:33 0° 96° (E) 3,148 - -49.3°
